Time,TemperatureF,DewpointF,PressureIn,WindDirection,WindDirectionDegrees,WindSpeedMPH,WindSpeedGustMPH,Humidity,HourlyPrecipIn,Conditions,Clouds,dailyrainin,SolarRadiationWatts/m^2,SoftwareType,DateUTC
2013-01-13 00:00:00,36.9,36.4,30.07,SSW,206,5.0,5.0,98,0.01,RA,,0.00,0.0,WeatherDisplay:10.37,2013-01-13 05:00:00,
2013-01-13 00:01:00,36.9,36.4,30.07,SSW,205,11.5,11.5,98,0.01,RA,,0.00,0.0,WeatherDisplay:10.37,2013-01-13 05:01:00,
2013-01-13 00:03:00,36.9,36.4,30.07,SSW,202,11.5,11.5,98,0.01,RA,,0.00,0.0,WeatherDisplay:10.37,2013-01-13 05:03:00,
2013-01-13 00:08:00,37.0,36.5,30.07,SSW,207,5.8,5.8,98,0.01,RA,,0.00,0.0,WeatherDisplay:10.37,2013-01-13 05:08:00,
2013-01-13 00:13:00,36.9,36.4,30.07,SW,218,5.8,5.8,98,0.01,CLR,,0.00,0.0,WeatherDisplay:10.37,2013-01-13 05:13:00,
2013-01-13 00:18:00,36.9,36.4,30.07,SW,217,3.5,3.5,98,0.01,CLR,,0.00,0.0,WeatherDisplay:10.37,2013-01-13 05:18:00,
2013-01-13 00:23:00,37.0,36.5,30.08,SW,225,3.5,3.5,98,0.00,CLR,,0.00,0.0,WeatherDisplay:10.37,2013-01-13 05:23:00,
2013-01-13 00:28:00,37.0,36.5,30.07,SSW,202,5.8,5.8,98,0.00,CLR,,0.00,0.0,WeatherDisplay:10.37,2013-01-13 05:28:00,
2013-01-13 00:33:00,37.0,36.5,30.07,SSW,209,1.1,1.1,98,0.00,CLR,,0.00,0.0,WeatherDisplay:10.37,2013-01-13 05:33:00,
2013-01-13 00:38:00,36.9,36.4,30.07,SW,232,3.5,3.5,98,0.00,CLR,,0.00,0.0,WeatherDisplay:10.37,2013-01-13 05:38:00,
2013-01-13 00:43:00,36.9,36.4,30.07,SW,232,3.5,3.5,98,0.00,CLR,,0.00,0.0,WeatherDisplay:10.37,2013-01-13 05:43:00,
2013-01-13 00:48:00,36.9,36.4,30.07,SW,232,3.5,3.5,98,0.00,CLR,,0.00,0.0,WeatherDisplay:10.37,2013-01-13 05:48:00,
2013-01-13 00:53:00,36.9,36.4,30.08,SW,232,0.0,0.0,98,0.00,CLR,,0.00,0.0,WeatherDisplay:10.37,2013-01-13 05:53:00,
2013-01-13 00:58:00,36.9,36.4,30.08,SW,232,0.0,0.0,98,0.00,CLR,,0.00,0.0,WeatherDisplay:10.37,2013-01-13 05:58:00,
2013-01-13 01:03:00,36.8,36.3,30.07,SW,232,2.3,2.3,98,0.00,CLR,,0.00,0.0,WeatherDisplay:10.37,2013-01-13 06:03:00,
2013-01-13 01:08:00,36.7,36.2,30.08,SW,232,0.0,0.0,98,0.00,CLR,,0.00,0.0,WeatherDisplay:10.37,2013-01-13 06:08:00,
2013-01-13 01:13:00,36.7,36.2,30.08,SW,232,0.0,0.1,98,0.00,CLR,,0.00,0.0,WeatherDisplay:10.37,2013-01-13 06:13:00,
2013-01-13 01:18:00,36.6,36.1,30.08,SW,232,0.0,0.0,98,0.00,CLR,,0.00,0.0,WeatherDisplay:10.37,2013-01-13 06:18:00,
2013-01-13 01:23:00,36.5,36.0,30.08,SW,232,0.0,0.0,98,0.00,CLR,,0.00,0.0,WeatherDisplay:10.37,2013-01-13 06:23:00,
2013-01-13 01:28:00,36.4,35.9,30.07,SW,232,0.0,0.0,98,0.00,CLR,,0.00,0.0,WeatherDisplay:10.37,2013-01-13 06:28:00,
2013-01-13 01:33:00,36.2,35.7,30.08,SW,232,0.0,0.0,98,0.00,CLR,,0.00,0.0,WeatherDisplay:10.37,2013-01-13 06:33:00,
2013-01-13 01:38:00,36.1,35.6,30.08,SW,232,1.1,1.1,98,0.00,CLR,,0.00,0.0,WeatherDisplay:10.37,2013-01-13 06:38:00,
2013-01-13 01:43:00,36.0,35.5,30.08,SW,232,2.3,2.3,98,0.00,CLR,,0.00,0.0,WeatherDisplay:10.37,2013-01-13 06:43:00,
2013-01-13 01:48:00,36.0,35.5,30.08,SW,232,0.0,0.0,98,0.00,CLR,,0.00,0.0,WeatherDisplay:10.37,2013-01-13 06:48:00,
2013-01-13 01:53:00,35.8,35.3,30.08,SW,232,1.1,1.1,98,0.00,CLR,,0.00,0.0,WeatherDisplay:10.37,2013-01-13 06:53:00,
2013-01-13 01:58:00,35.7,35.2,30.08,SW,232,3.5,3.5,98,0.00,CLR,,0.00,0.0,WeatherDisplay:10.37,2013-01-13 06:58:00,
2013-01-13 02:03:00,35.6,35.1,30.08,SW,232,1.1,0.0,98,0.00,CLR,,0.00,0.0,WeatherDisplay:10.37,2013-01-13 07:03:00,
2013-01-13 02:08:00,35.5,35.0,30.09,SW,232,0.0,0.0,98,0.01,RA,,0.01,0.0,WeatherDisplay:10.37,2013-01-13 07:08:00,
2013-01-13 02:13:00,35.4,34.9,30.09,SW,232,3.5,3.5,98,0.01,RA,,0.01,0.0,WeatherDisplay:10.37,2013-01-13 07:13:00,
2013-01-13 02:18:00,35.4,34.9,30.09,SW,232,2.0,2.0,98,0.01,,,0.01,0.0,WeatherDisplay:10.37,2013-01-13 07:18:00,
2013-01-13 02:23:00,35.4,34.9,30.09,SW,232,0.0,0.0,98,0.01,CLR,,0.01,0.0,WeatherDisplay:10.37,2013-01-13 07:23:00,
2013-01-13 02:28:00,35.4,34.9,30.09,SW,232,0.0,0.0,98,0.01,CLR,,0.01,0.0,WeatherDisplay:10.37,2013-01-13 07:28:00,
2013-01-13 02:33:00,35.4,34.9,30.09,SW,232,3.5,3.5,98,0.01,CLR,,0.01,0.0,WeatherDisplay:10.37,2013-01-13 07:33:00,
2013-01-13 02:38:00,35.4,34.9,30.09,SW,232,1.0,1.0,98,0.01,CLR,,0.01,0.0,WeatherDisplay:10.37,2013-01-13 07:38:00,
2013-01-13 02:43:00,35.3,34.8,30.09,SW,221,2.3,2.3,98,0.01,CLR,,0.01,0.0,WeatherDisplay:10.37,2013-01-13 07:43:00,
2013-01-13 02:48:00,35.3,34.8,30.09,SW,219,0.0,0.0,98,0.01,CLR,,0.01,0.0,WeatherDisplay:10.37,2013-01-13 07:48:00,
2013-01-13 02:53:00,35.3,34.8,30.09,SW,229,0.0,0.0,98,0.01,CLR,,0.01,0.0,WeatherDisplay:10.37,2013-01-13 07:53:00,
2013-01-13 02:58:00,35.3,34.8,30.08,SW,229,0.0,0.0,98,0.01,CLR,,0.01,0.0,WeatherDisplay:10.37,2013-01-13 07:58:00,
2013-01-13 03:03:00,35.4,34.9,30.08,SW,229,0.0,0.0,98,0.01,CLR,,0.01,0.0,WeatherDisplay:10.37,2013-01-13 08:03:00,
2013-01-13 03:08:00,35.5,35.0,30.08,SW,229,0.0,0.0,98,0.00,CLR,,0.01,0.0,WeatherDisplay:10.37,2013-01-13 08:08:00,
2013-01-13 03:13:00,35.5,35.0,30.08,SW,229,0.0,0.0,98,0.00,CLR,,0.01,0.0,WeatherDisplay:10.37,2013-01-13 08:13:00,
2013-01-13 03:18:00,35.5,35.0,30.08,SW,229,2.3,2.3,98,0.00,CLR,,0.01,0.0,WeatherDisplay:10.37,2013-01-13 08:18:00,
2013-01-13 03:23:00,35.5,35.0,30.08,SW,229,0.0,0.0,98,0.00,CLR,,0.01,0.0,WeatherDisplay:10.37,2013-01-13 08:23:00,
2013-01-13 03:28:00,35.4,34.9,30.08,SW,229,0.0,0.0,98,0.00,CLR,,0.01,0.0,WeatherDisplay:10.37,2013-01-13 08:28:00,
2013-01-13 03:33:00,35.4,34.9,30.08,SW,229,0.0,0.0,98,0.00,CLR,,0.01,0.0,WeatherDisplay:10.37,2013-01-13 08:33:00,
2013-01-13 03:38:00,35.2,34.7,30.07,SW,229,0.0,0.0,98,0.00,CLR,,0.01,0.0,WeatherDisplay:10.37,2013-01-13 08:38:00,
2013-01-13 03:43:00,34.9,34.4,30.06,ESE,117,3.5,3.5,98,0.00,CLR,,0.01,0.0,WeatherDisplay:10.37,2013-01-13 08:43:00,
2013-01-13 03:48:00,34.9,34.4,30.06,ESE,116,0.0,0.0,98,0.00,CLR,,0.01,0.0,WeatherDisplay:10.37,2013-01-13 08:48:00,
2013-01-13 03:53:00,35.1,34.6,30.06,ESE,117,0.0,0.1,98,0.00,CLR,,0.01,0.0,WeatherDisplay:10.37,2013-01-13 08:53:00,
2013-01-13 03:58:00,35.3,34.8,30.06,ESE,119,0.0,0.0,98,0.00,CLR,,0.01,0.0,WeatherDisplay:10.37,2013-01-13 08:58:00,
2013-01-13 04:03:00,35.3,34.8,30.06,SE,131,1.0,0.0,98,0.00,CLR,,0.01,0.0,WeatherDisplay:10.37,2013-01-13 09:03:00,
2013-01-13 04:08:00,35.4,34.9,30.06,SE,131,0.0,0.0,98,0.00,CLR,,0.01,0.0,WeatherDisplay:10.37,2013-01-13 09:08:00,
2013-01-13 04:13:00,35.4,34.9,30.05,SE,130,1.1,1.1,98,0.00,CLR,,0.01,0.0,WeatherDisplay:10.37,2013-01-13 09:13:00,
2013-01-13 04:18:00,35.3,34.8,30.05,SE,130,0.0,0.0,98,0.00,CLR,,0.01,0.0,WeatherDisplay:10.37,2013-01-13 09:18:00,
2013-01-13 04:23:00,35.3,34.8,30.06,SE,132,0.0,0.0,98,0.00,CLR,,0.01,0.0,WeatherDisplay:10.37,2013-01-13 09:23:00,
2013-01-13 04:28:00,35.3,34.8,30.06,SE,132,0.0,0.0,98,0.00,CLR,,0.01,0.0,WeatherDisplay:10.37,2013-01-13 09:28:00,
2013-01-13 04:33:00,35.4,34.9,30.07,SE,142,2.3,2.3,98,0.00,CLR,,0.01,0.0,WeatherDisplay:10.37,2013-01-13 09:33:00,
2013-01-13 04:38:00,35.4,34.9,30.07,SE,142,1.1,1.1,98,0.00,CLR,,0.01,0.0,WeatherDisplay:10.37,2013-01-13 09:38:00,
2013-01-13 04:43:00,35.4,34.9,30.06,SE,142,0.0,0.0,98,0.00,CLR,,0.01,0.0,WeatherDisplay:10.37,2013-01-13 09:43:00,
2013-01-13 04:48:00,35.3,34.8,30.06,SE,142,0.0,0.0,98,0.00,CLR,,0.01,0.0,WeatherDisplay:10.37,2013-01-13 09:48:00,
2013-01-13 04:53:00,35.1,34.6,30.06,SE,142,0.0,0.0,98,0.00,CLR,,0.01,0.0,WeatherDisplay:10.37,2013-01-13 09:53:00,
2013-01-13 04:58:00,35.1,34.6,30.05,SE,142,0.0,0.0,98,0.00,CLR,,0.01,0.0,WeatherDisplay:10.37,2013-01-13 09:58:00,
2013-01-13 05:03:00,35.1,34.6,30.06,SE,142,0.0,0.0,98,0.00,CLR,,0.01,0.0,WeatherDisplay:10.37,2013-01-13 10:03:00,
2013-01-13 05:08:00,35.2,34.7,30.05,SE,138,1.1,0.0,98,0.01,RA,,0.02,0.0,WeatherDisplay:10.37,2013-01-13 10:08:00,
2013-01-13 05:13:00,35.2,34.7,30.05,SE,138,0.0,0.0,98,0.01,RA,,0.02,0.0,WeatherDisplay:10.37,2013-01-13 10:13:00,
2013-01-13 05:18:00,35.2,34.7,30.06,SE,138,0.0,0.0,98,0.01,,,0.02,0.0,WeatherDisplay:10.37,2013-01-13 10:18:00,
2013-01-13 05:23:00,35.0,34.5,30.05,SE,138,0.0,0.0,98,0.01,CLR,,0.02,0.0,WeatherDisplay:10.37,2013-01-13 10:23:00,
2013-01-13 05:28:00,34.8,34.3,30.05,SE,138,0.0,0.0,98,0.01,CLR,,0.02,0.0,WeatherDisplay:10.37,2013-01-13 10:28:00,
2013-01-13 05:33:00,34.6,34.1,30.05,SE,138,0.0,0.0,98,0.01,CLR,,0.02,0.0,WeatherDisplay:10.37,2013-01-13 10:33:00,
2013-01-13 05:38:00,34.5,34.0,30.05,SE,138,0.0,0.0,98,0.01,CLR,,0.02,0.0,WeatherDisplay:10.37,2013-01-13 10:38:00,
2013-01-13 05:43:00,34.6,34.1,30.05,SE,138,0.0,0.0,98,0.01,CLR,,0.02,0.0,WeatherDisplay:10.37,2013-01-13 10:43:00,
2013-01-13 05:48:00,34.5,34.0,30.05,SE,138,0.0,0.0,98,0.01,CLR,,0.02,0.0,WeatherDisplay:10.37,2013-01-13 10:48:00,
2013-01-13 05:53:00,34.5,34.0,30.04,SE,138,0.0,0.0,98,0.01,CLR,,0.02,0.0,WeatherDisplay:10.37,2013-01-13 10:53:00,
2013-01-13 05:58:00,34.5,34.0,30.04,SE,138,0.0,0.0,98,0.01,CLR,,0.02,0.0,WeatherDisplay:10.37,2013-01-13 10:58:00,
2013-01-13 06:03:00,34.5,34.0,30.05,SE,138,0.0,0.0,98,0.01,CLR,,0.02,0.0,WeatherDisplay:10.37,2013-01-13 11:03:00,
2013-01-13 06:08:00,34.6,34.1,30.05,SE,138,0.0,0.0,98,0.00,CLR,,0.02,0.0,WeatherDisplay:10.37,2013-01-13 11:08:00,
2013-01-13 06:13:00,34.7,34.2,30.06,SE,138,0.0,0.0,98,0.00,CLR,,0.02,0.0,WeatherDisplay:10.37,2013-01-13 11:13:00,
2013-01-13 06:18:00,34.8,34.3,30.06,SE,138,0.0,0.0,98,0.00,CLR,,0.02,0.0,WeatherDisplay:10.37,2013-01-13 11:18:00,
2013-01-13 06:23:00,34.7,34.2,30.06,SE,138,0.0,0.0,98,0.00,CLR,,0.02,0.0,WeatherDisplay:10.37,2013-01-13 11:23:00,
2013-01-13 06:28:00,34.5,34.0,30.06,SE,141,2.0,0.0,98,0.00,CLR,,0.02,0.0,WeatherDisplay:10.37,2013-01-13 11:28:00,
2013-01-13 06:33:00,34.5,34.0,30.07,SE,144,2.3,2.3,98,0.00,CLR,,0.02,0.0,WeatherDisplay:10.37,2013-01-13 11:33:00,
2013-01-13 06:38:00,34.4,33.9,30.07,SSE,155,2.3,2.3,98,0.00,CLR,,0.02,0.0,WeatherDisplay:10.37,2013-01-13 11:38:00,
2013-01-13 06:43:00,34.3,33.8,30.08,South,171,1.0,1.0,98,0.00,CLR,,0.02,0.0,WeatherDisplay:10.37,2013-01-13 11:43:00,
2013-01-13 06:48:00,34.2,33.7,30.06,South,171,1.1,0.0,98,0.00,CLR,,0.02,0.0,WeatherDisplay:10.37,2013-01-13 11:48:00,
2013-01-13 06:53:00,34.1,33.6,30.05,South,175,3.5,3.5,98,0.00,CLR,,0.02,0.0,WeatherDisplay:10.37,2013-01-13 11:53:00,
2013-01-13 06:58:00,34.0,33.5,30.06,South,175,2.3,2.3,98,0.00,CLR,,0.02,0.0,WeatherDisplay:10.37,2013-01-13 11:58:00,
2013-01-13 07:03:00,34.1,33.6,30.06,South,175,1.1,0.0,98,0.00,CLR,,0.02,0.0,WeatherDisplay:10.37,2013-01-13 12:03:00,
2013-01-13 07:08:00,34.5,34.0,30.08,South,176,3.5,3.5,98,0.00,CLR,,0.02,0.0,WeatherDisplay:10.37,2013-01-13 12:08:00,
2013-01-13 07:13:00,34.5,34.0,30.08,South,177,2.3,2.3,98,0.00,CLR,,0.02,0.0,WeatherDisplay:10.37,2013-01-13 12:13:00,
2013-01-13 07:18:00,34.5,34.0,30.08,South,177,0.0,0.0,98,0.00,CLR,,0.02,0.0,WeatherDisplay:10.37,2013-01-13 12:18:00,
2013-01-13 07:23:00,34.5,34.0,30.08,South,177,0.0,0.0,98,0.00,CLR,,0.02,0.0,WeatherDisplay:10.37,2013-01-13 12:23:00,
2013-01-13 07:28:00,34.6,34.1,30.08,South,177,0.0,0.0,98,0.00,CLR,,0.02,5.0,WeatherDisplay:10.37,2013-01-13 12:28:00,
2013-01-13 07:33:00,34.8,34.3,30.08,South,177,0.0,0.0,98,0.00,CLR,,0.02,7.0,WeatherDisplay:10.37,2013-01-13 12:33:00,
2013-01-13 07:38:00,34.8,34.5,30.07,South,177,0.0,0.0,99,0.00,,,0.02,14.0,WeatherDisplay:10.37,2013-01-13 12:38:00,
2013-01-13 07:43:00,34.9,34.6,30.07,South,177,0.0,0.0,99,0.00,,,0.02,16.0,WeatherDisplay:10.37,2013-01-13 12:43:00,
2013-01-13 07:48:00,34.8,34.5,30.08,South,177,0.0,0.0,99,0.00,,,0.02,12.0,WeatherDisplay:10.37,2013-01-13 12:48:00,
2013-01-13 07:53:00,34.8,34.3,30.08,South,177,1.1,1.1,98,0.00,CLR,,0.02,14.0,WeatherDisplay:10.37,2013-01-13 12:53:00,
2013-01-13 07:58:00,34.7,34.2,30.08,South,177,0.0,0.0,98,0.00,CLR,,0.02,18.0,WeatherDisplay:10.37,2013-01-13 12:58:00,
2013-01-13 08:03:00,34.7,34.2,30.08,South,177,1.1,0.0,98,0.00,CLR,,0.02,21.0,WeatherDisplay:10.37,2013-01-13 13:03:00,
2013-01-13 08:08:00,34.6,34.1,30.06,South,176,0.0,0.0,98,0.00,CLR,,0.02,26.0,WeatherDisplay:10.37,2013-01-13 13:08:00,
2013-01-13 08:13:00,34.7,34.4,30.07,South,176,0.0,0.0,99,0.00,CLR,,0.02,23.0,WeatherDisplay:10.37,2013-01-13 13:13:00,
2013-01-13 08:18:00,34.9,34.6,30.07,South,177,1.1,0.0,99,0.00,,,0.02,21.0,WeatherDisplay:10.37,2013-01-13 13:18:00,
2013-01-13 08:23:00,35.3,35.0,30.08,South,177,0.0,0.0,99,0.00,,,0.02,18.0,WeatherDisplay:10.37,2013-01-13 13:23:00,
2013-01-13 08:28:00,35.6,35.3,30.08,South,177,0.0,0.0,99,0.00,,,0.02,18.0,WeatherDisplay:10.37,2013-01-13 13:28:00,
2013-01-13 08:33:00,35.8,35.5,30.08,South,177,0.0,0.0,99,0.00,,,0.02,16.0,WeatherDisplay:10.37,2013-01-13 13:33:00,
2013-01-13 08:38:00,35.9,35.6,30.08,South,177,0.0,0.0,99,0.00,,,0.02,16.0,WeatherDisplay:10.37,2013-01-13 13:38:00,
2013-01-13 08:43:00,35.9,35.6,30.08,South,177,3.5,3.5,99,0.00,,,0.02,14.0,WeatherDisplay:10.37,2013-01-13 13:43:00,
2013-01-13 08:48:00,35.9,35.6,30.08,South,177,3.5,0.0,99,0.00,,,0.02,19.0,WeatherDisplay:10.37,2013-01-13 13:48:00,
2013-01-13 08:53:00,35.9,35.6,30.08,South,177,0.0,0.0,99,0.00,,,0.02,19.0,WeatherDisplay:10.37,2013-01-13 13:53:00,
2013-01-13 08:58:00,35.9,35.6,30.08,South,177,0.0,0.0,99,0.00,,,0.03,16.0,WeatherDisplay:10.37,2013-01-13 13:58:00,
2013-01-13 09:03:00,35.9,35.6,30.08,South,177,0.0,0.0,99,0.01,RA,,0.03,28.0,WeatherDisplay:10.37,2013-01-13 14:03:00,
2013-01-13 09:08:00,36.0,35.7,30.08,South,177,3.0,3.0,99,0.01,RA,,0.03,33.0,WeatherDisplay:10.37,2013-01-13 14:08:00,
2013-01-13 09:13:00,36.0,35.7,30.08,South,177,2.3,0.0,99,0.01,OVC,,0.03,37.0,WeatherDisplay:10.37,2013-01-13 14:13:00,
2013-01-13 09:18:00,36.1,35.8,30.08,South,177,0.0,0.0,99,0.01,OVC,,0.03,37.0,WeatherDisplay:10.37,2013-01-13 14:18:00,
2013-01-13 09:23:00,36.2,35.9,30.08,South,174,0.0,0.0,99,0.01,OVC,,0.03,35.0,WeatherDisplay:10.37,2013-01-13 14:23:00,
2013-01-13 09:28:00,36.4,36.1,30.08,South,174,1.1,0.0,99,0.01,OVC,,0.03,60.0,WeatherDisplay:10.37,2013-01-13 14:28:00,
2013-01-13 09:33:00,36.6,36.3,30.08,South,174,2.3,2.3,99,0.01,OVC,,0.03,109.0,WeatherDisplay:10.37,2013-01-13 14:33:00,
2013-01-13 09:38:00,36.9,36.6,30.08,South,174,2.3,2.3,99,0.01,OVC,,0.03,127.0,WeatherDisplay:10.37,2013-01-13 14:38:00,
2013-01-13 09:43:00,37.1,36.8,30.08,South,172,2.3,2.3,99,0.01,OVC,,0.03,130.0,WeatherDisplay:10.37,2013-01-13 14:43:00,
2013-01-13 09:48:00,37.4,37.1,30.09,SSW,202,2.0,2.0,99,0.01,OVC,,0.03,123.0,WeatherDisplay:10.37,2013-01-13 14:48:00,
2013-01-13 09:53:00,37.6,37.3,30.08,SSW,203,3.5,0.0,99,0.01,OVC,,0.03,114.0,WeatherDisplay:10.37,2013-01-13 14:53:00,
2013-01-13 09:58:00,37.8,37.5,30.08,SSW,205,5.0,5.0,99,0.01,OVC,,0.03,114.0,WeatherDisplay:10.37,2013-01-13 14:58:00,
2013-01-13 10:03:00,38.0,37.7,30.09,SSW,205,5.8,5.8,99,0.00,OVC,,0.03,107.0,WeatherDisplay:10.37,2013-01-13 15:03:00,
2013-01-13 10:08:00,38.2,37.9,30.08,SSW,198,3.5,3.5,99,0.00,OVC,,0.03,120.0,WeatherDisplay:10.37,2013-01-13 15:08:00,
2013-01-13 10:13:00,38.4,38.1,30.08,SSW,205,2.3,2.3,99,0.00,OVC,,0.03,65.0,WeatherDisplay:10.37,2013-01-13 15:13:00,
2013-01-13 10:18:00,38.5,38.2,30.08,South,190,5.8,5.8,99,0.00,OVC,,0.03,44.0,WeatherDisplay:10.37,2013-01-13 15:18:00,
2013-01-13 10:23:00,38.8,38.5,30.08,SSW,194,4.0,4.0,99,0.00,OVC,,0.03,144.0,WeatherDisplay:10.37,2013-01-13 15:23:00,
2013-01-13 10:28:00,38.9,38.6,30.08,South,185,3.5,3.5,99,0.00,OVC,,0.03,123.0,WeatherDisplay:10.37,2013-01-13 15:28:00,
2013-01-13 10:34:00,39.2,38.9,30.07,SSW,201,4.6,4.6,99,0.00,OVC,,0.03,128.0,WeatherDisplay:10.37,2013-01-13 15:34:00,
2013-01-13 10:39:00,39.4,39.1,30.07,SSW,201,0.0,0.0,99,0.00,OVC,,0.03,118.0,WeatherDisplay:10.37,2013-01-13 15:39:00,
2013-01-13 10:44:00,39.6,39.3,30.07,SSW,197,0.0,0.0,99,0.00,OVC,,0.03,125.0,WeatherDisplay:10.37,2013-01-13 15:44:00,
2013-01-13 10:49:00,39.7,39.4,30.07,SSW,195,7.0,7.0,99,0.00,OVC,,0.03,107.0,WeatherDisplay:10.37,2013-01-13 15:49:00,
2013-01-13 10:54:00,39.8,39.5,30.07,SSW,193,5.8,5.8,99,0.01,RA,,0.04,135.0,WeatherDisplay:10.37,2013-01-13 15:54:00,
2013-01-13 10:59:00,39.9,39.6,30.07,SSW,193,6.9,6.9,99,0.01,RA,,0.04,125.0,WeatherDisplay:10.37,2013-01-13 15:59:00,
2013-01-13 11:04:00,39.9,39.6,30.06,South,190,3.5,3.5,99,0.01,OVC,,0.04,125.0,WeatherDisplay:10.37,2013-01-13 16:04:00,
2013-01-13 11:09:00,40.0,39.7,30.06,SSW,200,6.0,6.0,99,0.01,OVC,,0.04,123.0,WeatherDisplay:10.37,2013-01-13 16:09:00,
2013-01-13 11:14:00,40.1,39.8,30.05,SSW,199,5.8,5.8,99,0.01,OVC,,0.04,134.0,WeatherDisplay:10.37,2013-01-13 16:14:00,
2013-01-13 11:19:00,40.1,39.8,30.05,South,179,4.0,4.0,99,0.01,OVC,,0.04,146.0,WeatherDisplay:10.37,2013-01-13 16:19:00,
2013-01-13 11:24:00,40.2,39.9,30.05,South,186,10.0,10.0,99,0.01,OVC,,0.04,120.0,WeatherDisplay:10.37,2013-01-13 16:24:00,
2013-01-13 11:29:00,40.2,39.9,30.05,SSW,194,6.9,6.9,99,0.01,OVC,,0.04,118.0,WeatherDisplay:10.37,2013-01-13 16:29:00,
2013-01-13 11:34:00,40.2,39.9,30.05,South,180,6.9,6.9,99,0.01,OVC,,0.04,86.0,WeatherDisplay:10.37,2013-01-13 16:34:00,
2013-01-13 11:39:00,40.1,39.8,30.05,SSW,192,5.8,5.8,99,0.01,OVC,,0.04,58.0,WeatherDisplay:10.37,2013-01-13 16:39:00,
2013-01-13 11:44:00,39.9,39.6,30.04,South,184,3.5,3.5,99,0.01,OVC,,0.04,67.0,WeatherDisplay:10.37,2013-01-13 16:44:00,
2013-01-13 11:49:00,39.9,39.6,30.04,South,183,5.8,5.8,99,0.01,OVC,,0.04,67.0,WeatherDisplay:10.37,2013-01-13 16:49:00,
2013-01-13 11:54:00,39.8,39.5,30.03,SSE,161,3.5,3.5,99,0.00,OVC,,0.04,62.0,WeatherDisplay:10.37,2013-01-13 16:54:00,
2013-01-13 11:59:00,39.8,39.5,30.03,South,169,3.5,3.5,99,0.00,OVC,,0.04,60.0,WeatherDisplay:10.37,2013-01-13 16:59:00,
2013-01-13 12:04:00,39.7,39.4,30.03,SSE,167,3.5,3.5,99,0.00,OVC,,0.04,60.0,WeatherDisplay:10.37,2013-01-13 17:04:00,
2013-01-13 12:09:00,39.8,39.5,30.03,South,181,3.5,3.5,99,0.00,OVC,,0.04,60.0,WeatherDisplay:10.37,2013-01-13 17:09:00,
2013-01-13 12:14:00,39.8,39.5,30.03,South,185,5.0,5.0,99,0.00,OVC,,0.04,56.0,WeatherDisplay:10.37,2013-01-13 17:14:00,
2013-01-13 12:19:00,39.8,39.5,30.02,SSE,160,4.6,4.6,99,0.00,OVC,,0.04,63.0,WeatherDisplay:10.37,2013-01-13 17:19:00,
2013-01-13 12:24:00,39.9,39.6,30.02,SSW,194,3.0,3.0,99,0.00,CLR,,0.04,63.0,WeatherDisplay:10.37,2013-01-13 17:24:00,
2013-01-13 12:29:00,40.0,39.7,30.02,South,188,3.5,3.5,99,0.00,CLR,,0.04,69.0,WeatherDisplay:10.37,2013-01-13 17:29:00,
2013-01-13 12:34:00,40.1,39.8,30.02,South,188,0.0,0.5,99,0.00,CLR,,0.04,65.0,WeatherDisplay:10.37,2013-01-13 17:34:00,
2013-01-13 12:39:00,40.2,39.9,30.02,South,190,3.5,3.5,99,0.00,CLR,,0.04,63.0,WeatherDisplay:10.37,2013-01-13 17:39:00,
2013-01-13 12:44:00,40.3,40.0,30.03,South,190,0.0,0.0,99,0.00,CLR,,0.04,62.0,WeatherDisplay:10.37,2013-01-13 17:44:00,
2013-01-13 12:49:00,40.4,40.1,30.02,South,188,3.5,3.5,99,0.00,CLR,,0.04,53.0,WeatherDisplay:10.37,2013-01-13 17:49:00,
2013-01-13 12:54:00,40.4,40.1,30.02,South,188,1.1,0.0,99,0.00,CLR,,0.04,63.0,WeatherDisplay:10.37,2013-01-13 17:54:00,
2013-01-13 12:59:00,40.3,40.0,30.01,SSE,159,3.0,3.0,99,0.00,FEW,,0.04,58.0,WeatherDisplay:10.37,2013-01-13 17:59:00,
2013-01-13 13:04:00,40.3,40.0,30.01,South,179,3.5,3.5,99,0.00,CLR,,0.04,100.0,WeatherDisplay:10.37,2013-01-13 18:04:00,
2013-01-13 13:09:00,40.4,40.1,30.00,SE,136,3.5,3.5,99,0.00,CLR,,0.04,121.0,WeatherDisplay:10.37,2013-01-13 18:09:00,
2013-01-13 13:14:00,40.4,40.1,30.01,SSE,167,11.5,11.5,99,0.00,SCT,,0.04,51.0,WeatherDisplay:10.37,2013-01-13 18:14:00,
2013-01-13 13:19:00,40.4,40.1,30.01,SW,214,3.5,3.5,99,0.00,FEW,,0.04,93.0,WeatherDisplay:10.37,2013-01-13 18:19:00,
2013-01-13 13:24:00,40.4,40.1,30.01,SSW,192,5.8,5.8,99,0.00,FEW,,0.04,79.0,WeatherDisplay:10.37,2013-01-13 18:24:00,
2013-01-13 13:29:00,40.4,40.1,30.01,SSW,194,3.5,3.5,99,0.00,SCT,,0.04,76.0,WeatherDisplay:10.37,2013-01-13 18:29:00,
2013-01-13 13:34:00,40.5,40.2,30.01,South,186,3.5,3.5,99,0.00,BKN,,0.04,67.0,WeatherDisplay:10.37,2013-01-13 18:34:00,
2013-01-13 13:39:00,40.5,40.2,30.00,SSE,165,10.4,10.4,99,0.00,BKN,,0.04,70.0,WeatherDisplay:10.37,2013-01-13 18:39:00,
2013-01-13 13:44:00,40.6,40.3,29.99,South,186,3.5,3.5,99,0.00,SCT,,0.04,79.0,WeatherDisplay:10.37,2013-01-13 18:44:00,
2013-01-13 13:49:00,40.7,40.4,30.00,South,190,5.8,5.8,99,0.00,BKN,,0.04,74.0,WeatherDisplay:10.37,2013-01-13 18:49:00,
2013-01-13 13:54:00,40.8,40.5,30.00,SSW,209,3.5,3.5,99,0.00,BKN,,0.04,62.0,WeatherDisplay:10.37,2013-01-13 18:54:00,
2013-01-13 13:59:00,40.8,40.5,30.00,SSW,213,3.5,3.5,99,0.00,BKN,,0.04,62.0,WeatherDisplay:10.37,2013-01-13 18:59:00,
2013-01-13 14:04:00,40.9,40.6,30.00,SSW,209,1.1,0.0,99,0.00,BKN,,0.04,67.0,WeatherDisplay:10.37,2013-01-13 19:04:00,
2013-01-13 14:09:00,41.0,40.7,30.00,SSW,212,3.5,3.5,99,0.00,BKN,,0.04,49.0,WeatherDisplay:10.37,2013-01-13 19:09:00,
2013-01-13 14:14:00,41.1,40.8,30.00,SSW,210,3.0,0.0,99,0.00,BKN,,0.04,53.0,WeatherDisplay:10.37,2013-01-13 19:14:00,
2013-01-13 14:19:00,40.9,40.6,30.00,SSW,207,2.3,2.3,99,0.00,BKN,,0.04,35.0,WeatherDisplay:10.37,2013-01-13 19:19:00,
2013-01-13 14:24:00,40.9,40.6,30.00,SSW,207,0.0,0.0,99,0.00,BKN,,0.04,42.0,WeatherDisplay:10.37,2013-01-13 19:24:00,
2013-01-13 14:29:00,40.8,40.5,30.00,SSW,198,2.3,2.3,99,0.00,BKN,,0.04,40.0,WeatherDisplay:10.37,2013-01-13 19:29:00,
2013-01-13 14:34:00,40.9,40.6,29.99,SSW,206,3.5,3.5,99,0.00,BKN,,0.04,33.0,WeatherDisplay:10.37,2013-01-13 19:34:00,
2013-01-13 14:39:00,40.9,40.6,29.99,South,188,5.8,5.8,99,0.00,BKN,,0.04,23.0,WeatherDisplay:10.37,2013-01-13 19:39:00,
2013-01-13 14:44:00,40.9,40.6,29.99,SSE,166,3.5,3.5,99,0.00,OVC,,0.04,14.0,WeatherDisplay:10.37,2013-01-13 19:44:00,
2013-01-13 14:49:00,40.7,40.4,29.98,SE,132,9.2,9.2,99,0.00,OVC,,0.04,16.0,WeatherDisplay:10.37,2013-01-13 19:49:00,
2013-01-13 14:54:00,40.7,40.4,29.98,South,178,6.9,6.9,99,0.00,OVC,,0.04,14.0,WeatherDisplay:10.37,2013-01-13 19:54:00,
2013-01-13 14:59:00,40.6,40.3,29.99,South,184,3.5,3.5,99,0.00,OVC,,0.04,14.0,WeatherDisplay:10.37,2013-01-13 19:59:00,
2013-01-13 15:04:00,40.5,40.2,29.98,South,189,3.5,3.5,99,0.00,,,0.04,16.0,WeatherDisplay:10.37,2013-01-13 20:04:00,
2013-01-13 15:09:00,40.5,40.2,29.98,South,187,3.0,3.0,99,0.00,,,0.04,19.0,WeatherDisplay:10.37,2013-01-13 20:09:00,
2013-01-13 15:14:00,40.4,40.1,29.98,SSW,201,9.2,9.2,99,0.00,,,0.04,5.0,WeatherDisplay:10.37,2013-01-13 20:14:00,
2013-01-13 15:19:00,40.3,40.0,29.98,South,187,6.9,6.9,99,0.00,,,0.04,0.0,WeatherDisplay:10.37,2013-01-13 20:19:00,
2013-01-13 15:24:00,40.3,40.0,29.97,South,183,11.5,11.5,99,0.00,,,0.04,7.0,WeatherDisplay:10.37,2013-01-13 20:24:00,
2013-01-13 15:29:00,40.4,40.1,29.97,SW,221,11.5,11.5,99,0.00,,,0.04,9.0,WeatherDisplay:10.37,2013-01-13 20:29:00,
2013-01-13 15:34:00,40.5,40.2,29.97,South,173,6.9,6.9,99,0.00,,,0.04,9.0,WeatherDisplay:10.37,2013-01-13 20:34:00,
2013-01-13 15:39:00,40.6,40.3,29.97,SSW,205,9.2,9.2,99,0.00,,,0.04,7.0,WeatherDisplay:10.37,2013-01-13 20:39:00,
2013-01-13 15:44:00,40.6,40.3,29.97,South,172,11.5,11.5,99,0.00,,,0.04,9.0,WeatherDisplay:10.37,2013-01-13 20:44:00,
2013-01-13 15:49:00,40.7,40.4,29.98,SSW,209,6.9,6.9,99,0.00,,,0.04,18.0,WeatherDisplay:10.37,2013-01-13 20:49:00,
2013-01-13 15:54:00,40.9,40.6,29.97,SSW,209,10.4,10.4,99,0.00,,,0.04,16.0,WeatherDisplay:10.37,2013-01-13 20:54:00,
2013-01-13 15:59:00,41.1,40.8,29.98,SW,215,4.0,4.0,99,0.00,,,0.04,9.0,WeatherDisplay:10.37,2013-01-13 20:59:00,
2013-01-13 16:04:00,41.2,40.9,29.97,SSW,200,11.5,11.5,99,0.00,CLR,,0.04,11.0,WeatherDisplay:10.37,2013-01-13 21:04:00,
2013-01-13 16:09:00,41.6,41.3,29.97,SSW,207,9.2,9.2,99,0.00,CLR,,0.04,7.0,WeatherDisplay:10.37,2013-01-13 21:09:00,
2013-01-13 16:14:00,41.8,41.5,29.97,SSW,201,3.5,3.5,99,0.00,CLR,,0.04,5.0,WeatherDisplay:10.37,2013-01-13 21:14:00,
2013-01-13 16:19:00,41.9,41.6,29.97,SSW,200,2.3,2.3,99,0.00,,,0.04,0.0,WeatherDisplay:10.37,2013-01-13 21:19:00,
2013-01-13 16:24:00,42.0,41.7,29.97,South,179,11.5,11.5,99,0.00,,,0.04,0.0,WeatherDisplay:10.37,2013-01-13 21:24:00,
2013-01-13 16:29:00,42.0,41.7,29.96,SSW,200,6.9,6.9,99,0.00,,,0.04,0.0,WeatherDisplay:10.37,2013-01-13 21:29:00,
2013-01-13 16:34:00,42.1,41.8,29.96,South,171,6.9,6.9,99,0.00,,,0.04,0.0,WeatherDisplay:10.37,2013-01-13 21:34:00,
2013-01-13 16:39:00,42.3,42.0,29.94,SSE,159,6.9,6.9,99,0.00,,,0.04,0.0,WeatherDisplay:10.37,2013-01-13 21:39:00,
2013-01-13 16:44:00,42.4,42.1,29.94,SSE,166,9.2,9.2,99,0.00,,,0.04,0.0,WeatherDisplay:10.37,2013-01-13 21:44:00,
2013-01-13 16:49:00,42.6,42.3,29.95,South,175,6.9,6.9,99,0.00,,,0.04,0.0,WeatherDisplay:10.37,2013-01-13 21:49:00,
2013-01-13 16:54:00,42.8,42.5,29.95,South,189,2.3,2.3,99,0.00,,,0.04,0.0,WeatherDisplay:10.37,2013-01-13 21:54:00,
2013-01-13 16:59:00,42.8,42.5,29.95,South,170,6.9,6.9,99,0.00,,,0.04,0.0,WeatherDisplay:10.37,2013-01-13 21:59:00,
2013-01-13 17:04:00,42.8,42.5,29.95,SSE,167,8.1,8.1,99,0.00,,,0.04,0.0,WeatherDisplay:10.37,2013-01-13 22:04:00,
2013-01-13 17:09:00,42.8,42.5,29.95,SSW,203,6.9,6.9,99,0.00,,,0.04,0.0,WeatherDisplay:10.37,2013-01-13 22:09:00,
2013-01-13 17:14:00,42.7,42.4,29.96,South,182,10.4,10.4,99,0.00,,,0.04,0.0,WeatherDisplay:10.37,2013-01-13 22:14:00,
2013-01-13 17:19:00,42.6,42.3,29.96,South,190,3.5,3.5,99,0.00,,,0.04,0.0,WeatherDisplay:10.37,2013-01-13 22:19:00,
2013-01-13 17:24:00,42.6,42.3,29.96,SSW,211,10.4,10.4,99,0.00,,,0.04,0.0,WeatherDisplay:10.37,2013-01-13 22:24:00,
2013-01-13 17:29:00,42.7,42.4,29.96,SSE,152,10.4,10.4,99,0.00,,,0.04,0.0,WeatherDisplay:10.37,2013-01-13 22:29:00,
2013-01-13 17:34:00,42.8,42.5,29.96,SSW,202,9.2,9.2,99,0.00,,,0.04,0.0,WeatherDisplay:10.37,2013-01-13 22:34:00,
2013-01-13 17:39:00,42.8,42.5,29.97,SSW,194,4.6,4.6,99,0.00,,,0.04,0.0,WeatherDisplay:10.37,2013-01-13 22:39:00,
2013-01-13 17:44:00,42.8,42.5,29.97,SW,236,9.2,9.2,99,0.00,,,0.04,0.0,WeatherDisplay:10.37,2013-01-13 22:44:00,
2013-01-13 17:49:00,42.8,42.5,29.97,SW,221,11.5,11.5,99,0.00,,,0.04,0.0,WeatherDisplay:10.37,2013-01-13 22:49:00,
2013-01-13 17:54:00,42.8,42.5,29.97,SW,221,5.8,5.8,99,0.00,,,0.04,0.0,WeatherDisplay:10.37,2013-01-13 22:54:00,
2013-01-13 17:59:00,42.9,42.6,29.98,SW,219,2.3,2.3,99,0.00,,,0.04,0.0,WeatherDisplay:10.37,2013-01-13 22:59:00,
2013-01-13 18:04:00,43.0,42.7,29.98,SSW,202,6.9,6.9,99,0.00,,,0.04,0.0,WeatherDisplay:10.37,2013-01-13 23:04:00,
2013-01-13 18:09:00,43.1,42.8,29.98,South,181,4.6,4.6,99,0.00,,,0.04,0.0,WeatherDisplay:10.37,2013-01-13 23:09:00,
2013-01-13 18:14:00,43.1,42.8,29.98,SSW,209,8.0,8.0,99,0.00,,,0.04,0.0,WeatherDisplay:10.37,2013-01-13 23:14:00,
2013-01-13 18:19:00,43.0,42.7,29.98,West,259,10.0,10.0,99,0.00,,,0.04,0.0,WeatherDisplay:10.37,2013-01-13 23:19:00,
2013-01-13 18:24:00,43.1,42.8,29.98,SW,225,11.5,11.5,99,0.00,CLR,,0.04,0.0,WeatherDisplay:10.37,2013-01-13 23:24:00,
2013-01-13 18:29:00,43.1,42.8,29.97,SSW,211,4.6,4.6,99,0.00,CLR,,0.04,0.0,WeatherDisplay:10.37,2013-01-13 23:29:00,
2013-01-13 18:34:00,43.2,42.9,29.97,SW,215,12.7,12.7,99,0.00,CLR,,0.04,0.0,WeatherDisplay:10.37,2013-01-13 23:34:00,
2013-01-13 18:39:00,43.2,42.9,29.97,SW,227,6.9,6.9,99,0.00,CLR,,0.04,0.0,WeatherDisplay:10.37,2013-01-13 23:39:00,
2013-01-13 18:44:00,43.1,42.8,29.97,South,188,11.5,11.5,99,0.00,CLR,,0.04,0.0,WeatherDisplay:10.37,2013-01-13 23:44:00,
2013-01-13 18:49:00,43.1,42.8,29.96,SSW,200,6.9,6.9,99,0.00,CLR,,0.04,0.0,WeatherDisplay:10.37,2013-01-13 23:49:00,
2013-01-13 18:54:00,43.2,42.9,29.96,SW,217,5.8,5.8,99,0.00,,,0.04,0.0,WeatherDisplay:10.37,2013-01-13 23:54:00,
2013-01-13 18:59:00,43.2,42.9,29.97,South,171,11.5,11.5,99,0.00,,,0.04,0.0,WeatherDisplay:10.37,2013-01-13 23:59:00,
2013-01-13 19:04:00,43.1,42.8,29.97,South,175,4.6,4.6,99,0.00,,,0.04,0.0,WeatherDisplay:10.37,2013-01-14 00:04:00,
2013-01-13 19:09:00,43.1,42.8,29.97,SSW,207,6.0,6.0,99,0.00,,,0.04,0.0,WeatherDisplay:10.37,2013-01-14 00:09:00,
2013-01-13 19:14:00,43.2,42.9,29.97,SSW,213,5.8,5.8,99,0.00,,,0.04,0.0,WeatherDisplay:10.37,2013-01-14 00:14:00,
2013-01-13 19:19:00,43.2,42.9,29.97,SW,217,9.2,9.2,99,0.00,CLR,,0.04,0.0,WeatherDisplay:10.37,2013-01-14 00:19:00,
2013-01-13 19:24:00,43.1,42.8,29.97,SE,145,3.5,5.2,99,0.00,,,0.04,0.0,WeatherDisplay:10.37,2013-01-14 00:24:00,
2013-01-13 19:29:00,43.1,42.8,29.97,SSW,205,10.4,10.4,99,0.00,,,0.04,0.0,WeatherDisplay:10.37,2013-01-14 00:29:00,
2013-01-13 19:34:00,43.0,42.7,29.98,SSW,205,6.9,6.9,99,0.00,,,0.04,0.0,WeatherDisplay:10.37,2013-01-14 00:34:00,
2013-01-13 19:39:00,42.9,42.6,29.98,WSW,238,3.5,3.5,99,0.00,,,0.04,0.0,WeatherDisplay:10.37,2013-01-14 00:39:00,
2013-01-13 19:44:00,42.8,42.5,29.98,SSW,207,4.6,4.6,99,0.00,,,0.04,0.0,WeatherDisplay:10.37,2013-01-14 00:44:00,
2013-01-13 19:49:00,42.7,42.4,29.98,SSW,206,4.6,4.6,99,0.00,,,0.04,0.0,WeatherDisplay:10.37,2013-01-14 00:49:00,
2013-01-13 19:54:00,42.7,42.4,29.98,SW,225,5.8,5.8,99,0.00,,,0.04,0.0,WeatherDisplay:10.37,2013-01-14 00:54:00,
2013-01-13 19:59:00,42.7,42.4,29.96,SSW,211,6.9,6.9,99,0.00,,,0.04,0.0,WeatherDisplay:10.37,2013-01-14 00:59:00,
2013-01-13 20:04:00,42.6,42.3,29.96,SSW,213,6.0,6.0,99,0.00,,,0.04,0.0,WeatherDisplay:10.37,2013-01-14 01:04:00,
2013-01-13 20:09:00,42.6,42.3,29.96,SSW,199,10.0,10.0,99,0.00,,,0.04,0.0,WeatherDisplay:10.37,2013-01-14 01:09:00,
2013-01-13 20:14:00,42.5,42.2,29.97,SSW,196,4.6,4.6,99,0.00,,,0.04,0.0,WeatherDisplay:10.37,2013-01-14 01:14:00,
2013-01-13 20:19:00,42.5,42.2,29.97,SW,220,11.5,11.5,99,0.00,,,0.04,0.0,WeatherDisplay:10.37,2013-01-14 01:19:00,
2013-01-13 20:24:00,42.5,42.2,29.97,SSW,203,11.5,11.5,99,0.00,CLR,,0.04,0.0,WeatherDisplay:10.37,2013-01-14 01:24:00,
2013-01-13 20:29:00,42.4,42.1,29.96,SSW,202,6.9,6.9,99,0.00,CLR,,0.04,0.0,WeatherDisplay:10.37,2013-01-14 01:29:00,
2013-01-13 20:34:00,42.4,42.1,29.96,SSW,209,10.4,10.4,99,0.00,CLR,,0.04,0.0,WeatherDisplay:10.37,2013-01-14 01:34:00,
2013-01-13 20:39:00,42.4,42.1,29.96,SW,217,6.9,6.9,99,0.00,CLR,,0.04,0.0,WeatherDisplay:10.37,2013-01-14 01:39:00,
2013-01-13 20:44:00,42.4,42.1,29.96,SW,221,5.8,5.8,99,0.00,,,0.04,0.0,WeatherDisplay:10.37,2013-01-14 01:44:00,
2013-01-13 20:49:00,42.4,42.1,29.96,SW,216,9.2,9.2,99,0.00,,,0.04,0.0,WeatherDisplay:10.37,2013-01-14 01:49:00,
2013-01-13 20:54:00,42.4,42.1,29.95,SSW,208,10.4,10.4,99,0.00,,,0.04,0.0,WeatherDisplay:10.37,2013-01-14 01:54:00,
2013-01-13 20:59:00,42.4,42.1,29.95,SSW,199,5.0,5.0,99,0.00,,,0.04,0.0,WeatherDisplay:10.37,2013-01-14 01:59:00,
2013-01-13 21:04:00,42.4,42.1,29.94,SW,217,6.9,6.9,99,0.00,,,0.04,0.0,WeatherDisplay:10.37,2013-01-14 02:04:00,
2013-01-13 21:09:00,42.4,42.1,29.94,SW,229,3.5,4.2,99,0.00,,,0.04,0.0,WeatherDisplay:10.37,2013-01-14 02:09:00,
2013-01-13 21:14:00,42.4,42.1,29.94,SW,233,10.4,10.4,99,0.00,,,0.04,0.0,WeatherDisplay:10.37,2013-01-14 02:14:00,
2013-01-13 21:19:00,42.4,42.1,29.94,SW,216,5.8,5.8,99,0.00,,,0.04,0.0,WeatherDisplay:10.37,2013-01-14 02:19:00,
2013-01-13 21:24:00,42.4,42.1,29.93,SSW,205,6.9,6.9,99,0.00,,,0.04,0.0,WeatherDisplay:10.37,2013-01-14 02:24:00,
2013-01-13 21:29:00,42.4,42.1,29.94,SW,223,6.0,6.0,99,0.00,,,0.04,0.0,WeatherDisplay:10.37,2013-01-14 02:29:00,
2013-01-13 21:34:00,42.3,42.0,29.94,SSW,213,6.0,6.0,99,0.00,,,0.04,0.0,WeatherDisplay:10.37,2013-01-14 02:34:00,
2013-01-13 21:39:00,42.3,42.0,29.94,South,184,4.6,4.7,99,0.00,,,0.04,0.0,WeatherDisplay:10.37,2013-01-14 02:39:00,
2013-01-13 21:44:00,42.2,41.9,29.93,SSW,202,10.4,10.4,99,0.00,,,0.04,0.0,WeatherDisplay:10.37,2013-01-14 02:44:00,
2013-01-13 21:49:00,42.2,41.9,29.93,SW,221,3.5,3.5,99,0.00,,,0.04,0.0,WeatherDisplay:10.37,2013-01-14 02:49:00,
2013-01-13 21:54:00,42.1,41.8,29.93,SW,214,5.8,5.8,99,0.00,,,0.04,0.0,WeatherDisplay:10.37,2013-01-14 02:54:00,
2013-01-13 21:59:00,42.2,41.9,29.94,SW,226,6.9,6.9,99,0.00,,,0.04,0.0,WeatherDisplay:10.37,2013-01-14 02:59:00,
2013-01-13 22:04:00,42.2,41.9,29.94,SW,229,7.0,7.0,99,0.00,,,0.04,0.0,WeatherDisplay:10.37,2013-01-14 03:04:00,
2013-01-13 22:09:00,42.3,42.0,29.94,WSW,242,9.0,9.0,99,0.00,,,0.04,0.0,WeatherDisplay:10.37,2013-01-14 03:09:00,
2013-01-13 22:14:00,42.3,42.0,29.94,SW,229,3.5,3.5,99,0.00,,,0.04,0.0,WeatherDisplay:10.37,2013-01-14 03:14:00,
2013-01-13 22:19:00,42.3,42.0,29.94,SSW,206,5.8,5.8,99,0.00,,,0.04,0.0,WeatherDisplay:10.37,2013-01-14 03:19:00,
2013-01-13 22:24:00,42.3,42.0,29.94,SSW,207,3.5,3.5,99,0.00,,,0.04,0.0,WeatherDisplay:10.37,2013-01-14 03:24:00,
2013-01-13 22:29:00,42.2,41.9,29.94,SSW,210,4.6,4.6,99,0.00,,,0.04,0.0,WeatherDisplay:10.37,2013-01-14 03:29:00,
2013-01-13 22:34:00,42.1,41.8,29.94,SW,229,7.0,7.0,99,0.00,,,0.04,0.0,WeatherDisplay:10.37,2013-01-14 03:34:00,
2013-01-13 22:39:00,42.1,41.8,29.94,South,191,6.9,6.9,99,0.00,,,0.04,0.0,WeatherDisplay:10.37,2013-01-14 03:39:00,
2013-01-13 22:44:00,42.0,41.7,29.94,SSW,196,4.6,4.6,99,0.00,,,0.04,0.0,WeatherDisplay:10.37,2013-01-14 03:44:00,
2013-01-13 22:49:00,42.0,41.7,29.94,SSW,207,5.8,5.8,99,0.00,,,0.04,0.0,WeatherDisplay:10.37,2013-01-14 03:49:00,
2013-01-13 22:54:00,42.0,41.7,29.94,SSW,207,5.8,5.8,99,0.00,,,0.04,0.0,WeatherDisplay:10.37,2013-01-14 03:54:00,
2013-01-13 22:59:00,42.0,41.7,29.94,SW,227,4.6,4.6,99,0.00,,,0.04,0.0,WeatherDisplay:10.37,2013-01-14 03:59:00,
2013-01-13 23:04:00,42.0,41.7,29.94,SW,217,4.6,4.6,99,0.00,,,0.04,0.0,WeatherDisplay:10.37,2013-01-14 04:04:00,
2013-01-13 23:09:00,42.0,41.7,29.94,SSW,205,4.6,4.6,99,0.00,,,0.04,0.0,WeatherDisplay:10.37,2013-01-14 04:09:00,
2013-01-13 23:14:00,41.9,41.6,29.94,SW,226,3.5,3.5,99,0.00,,,0.04,0.0,WeatherDisplay:10.37,2013-01-14 04:14:00,
2013-01-13 23:19:00,41.9,41.6,29.94,SSW,204,3.5,3.5,99,0.00,,,0.04,0.0,WeatherDisplay:10.37,2013-01-14 04:19:00,
2013-01-13 23:24:00,41.9,41.6,29.94,SSW,211,3.5,3.5,99,0.00,,,0.04,0.0,WeatherDisplay:10.37,2013-01-14 04:24:00,
2013-01-13 23:29:00,41.9,41.6,29.94,WSW,240,2.3,0.0,99,0.00,,,0.04,0.0,WeatherDisplay:10.37,2013-01-14 04:29:00,
2013-01-13 23:34:00,41.8,41.5,29.94,SW,229,5.8,5.8,99,0.00,,,0.04,0.0,WeatherDisplay:10.37,2013-01-14 04:34:00,
2013-01-13 23:39:00,41.8,41.5,29.94,SSW,211,3.5,3.5,99,0.00,,,0.04,0.0,WeatherDisplay:10.37,2013-01-14 04:39:00,
2013-01-13 23:44:00,41.7,41.4,29.94,SW,215,3.5,3.5,99,0.00,,,0.04,0.0,WeatherDisplay:10.37,2013-01-14 04:44:00,
2013-01-13 23:49:00,41.6,41.3,29.94,SW,223,3.0,3.0,99,0.00,,,0.04,0.0,WeatherDisplay:10.37,2013-01-14 04:49:00,
2013-01-13 23:54:00,41.6,41.3,29.94,WSW,239,2.3,2.7,99,0.00,,,0.04,0.0,WeatherDisplay:10.37,2013-01-14 04:54:00,